Location: Newark
(2.0333°N, 45.3500°E)
Time: 13:05:19
(UTC+00:00)

N. Korean satellite - Visible Passes

Search period start: 24 September 2020 00:00
Search period end: 04 October 2020 00:00
Orbit: 455 x 503 km, 97.2° (Epoch: 23 September)

Date Brightness Start Highest point End Pass type
(mag) Time Alt. Az. Time Alt. Az. Time Alt. Az.
24 Sep 10.3 01:19:30 10° E 01:19:45 10° E 01:20:02 10° ESE visible
25 Sep 6.7 02:23:30 10° N 02:26:55 51° W 02:30:18 10° SSW visible
26 Sep 7.5 01:57:33 10° NNE 02:00:58 50° E 02:04:20 10° S visible
27 Sep 9.6 01:32:33 10° NE 01:34:59 18° E 01:37:25 10° SE visible
29 Sep 6.4 02:12:42 10° N 02:16:11 82° W 02:19:38 10° SSW visible
30 Sep 8.5 01:47:05 10° NE 01:50:13 32° E 01:53:19 10° SSE visible
01 Oct 10.0 01:22:52 10° ENE 01:24:14 12° E 01:25:36 10° SE visible
03 Oct 7.0 02:01:59 10° NNE 02:05:24 62° E 02:08:47 10° S visible
